Weather Roundup
Issued by NWS

Home | Current Version | Previous Version | Graphics & Text | Print | Product List | Glossary Off
Versions: 1 2 3 4 5 6 7 8 9 10 11 12 13 14 15 16 17 18 19 20 21 22 23 24 25 26 27 28 29 30 31 32 33 34 35 36 37 38 39 40 41 42 43 44 45 46 47 48 49 50

000
NZUS93 KARX 011559
HRRWXR

CURRENT HOURLY OBSERVATIONS ACROSS
MUCH OF THE UPPER MISSISSIPPI VALLEY
NATIONAL WEATHER SERVICE LA CROSSE WI
1100 AM CDT WED JUL 01 2015


...SOUTHEAST MINNESOTA...


CITY           SKY/WX    TMP DP  RH WIND       PRES   REMARKS
ROCHESTER      PTSUNNY   61  52  72 NE6       30.02S
ROCHESTER/MAYO FAIR      61  51  68 E3        30.02S
WINONA         PTSUNNY   61  50  67 SE7       30.01F
AUSTIN         CLOUDY    64  54  68 E5        30.00S
ALBERT LEA     CLOUDY    64  55  72 SE5       29.99S
DODGE CENTER   CLOUDY    61  52  72 E3        30.01S
PRESTON        PTSUNNY   62  51  66 NE3       30.02S
OWATONNA       CLOUDY    63  52  67 E7        30.01S
FARIBAULT      CLOUDY    61  52  72 E5        30.02R
$$

...ELSEWHERE IN MINNESOTA...


CITY           SKY/WX    TMP DP  RH WIND       PRES   REMARKS
MINNEAPOLIS    CLOUDY    61  48  62 E7        30.02R
INTNL FALLS    SUNNY    N/A N/A N/A MISG      29.98S
DULUTH         MOSUNNY   66  51  58 SW7       30.02S
RED WING       CLOUDY    61  52  72 CALM      30.01S
REDWOOD FALLS  CLOUDY    62  56  80 E5        29.99R
MANKATO        CLOUDY    61  54  77 E5        30.00F
WORTHINGTON    CLOUDY    61  55  82 E9        29.97S
FAIRMONT       CLOUDY    63  54  72 E6        29.98R
$$

...SOUTHWEST WISCONSIN...


CITY           SKY/WX    TMP DP  RH WIND       PRES   REMARKS
LA CROSSE      MOSUNNY   64  48  56 E7        30.01R
PRAIRIE DU CHI SUNNY     64  51  62 E6        29.99S
BOSCOBEL       SUNNY     67  50  54 N6        30.01R
LONE ROCK      NOT AVBL
PLATTEVILLE    PTSUNNY   64  58  81 CALM      29.99S
FORT MC COY    MOSUNNY   65  44  46 NE5       30.01S
VIROQUA        FAIR      63  48  58 E3        30.01S
WIS DELLS      SUNNY     63  45  52 NE8       29.99S
$$

...ELSEWHERE IN WISCONSIN...


CITY           SKY/WX    TMP DP  RH WIND       PRES   REMARKS
MILWAUKEE      MOSUNNY   61  49  64 E7        29.98R
MADISON        MOSUNNY   65  47  52 VRB6      29.98S
GREEN BAY      CLOUDY    60  49  66 N7        30.00R
EAU CLAIRE     NOT AVBL
BLACK RVR FLS  FAIR      65  45  49 NE6       30.01S
MEDFORD        PTSUNNY   60  46  58 NE7       30.02F
WAUSAU         MOSUNNY   64  44  48 N10G16    30.00S
WIS RAPIDS     PTSUNNY   64  42  44 NE9       30.01S
MARSHFIELD     PTSUNNY   62  44  51 NE7       30.01F
RICE LAKE      PTSUNNY   62  45  52 E6        30.04F
$$

...NORTHEAST IOWA...


CITY           SKY/WX    TMP DP  RH WIND       PRES   REMARKS
DECORAH          N/A    N/A N/A N/A MISG        N/A
MASON CITY     PTSUNNY   65  56  72 E7        30.00S
CHARLES CITY   MOSUNNY   64  59  82 E8        30.00R
OELWEIN          N/A     64  57  77 E10       29.99S
$$

...ELSEWHERE IN IOWA...


CITY           SKY/WX    TMP DP  RH WIND       PRES   REMARKS
DES MOINES     CLOUDY    72  62  71 NE5       29.94R
IOWA CITY      MOSUNNY   70  61  73 E10       29.96R
FORT DODGE     CLOUDY    70  57  64 E14       29.94F
$$

...NORTHERN ILLINOIS...


CITY           SKY/WX    TMP DP  RH WIND       PRES   REMARKS
CHICAGO-OHARE  CLOUDY    65  54  67 NE6       29.97S
CHICAGO-MIDWAY CLOUDY    65  54  67 NE7       29.97S
MOLINE         CLOUDY    65  59  81 E9        29.96R
ROCKFORD       CLOUDY    67  55  65 CALM      29.99S
PEORIA         SUNNY     73  63  70 NE9       29.94R
$$

NOTE: "FAIR" INDICATES FEW OR NO CLOUDS BELOW 12,000 FEET WITH NO
SIGNIFICANT WEATHER AND/OR OBSTRUCTIONS TO VISIBILITY. WIND
SPEEDS ARE IN MILES-PER-HOUR.



USA.gov is the U.S. government's official web portal to all federal, state and local government web resources and services.